Weather History for Lebanon, NH

Change the Weather History Date:

Sunday, October 16, 2011

  Actual Average Record
Temperature  
Mean Temperature 54 °F -  
Max Temperature 60 °F 58 °F 84 °F (1947)
Min Temperature 50 °F 38 °F 22 °F (1939)
Degree Days  
Heating Degree Days 10    
Growing Degree Days 4 (Base 50)    
Moisture  
Dew Point 39 °F    
Average Humidity 60    
Maximum Humidity 77    
Minimum Humidity 41    
Precipitation  
Precipitation 0.00 in - - ()
Sea Level Pressure  
Sea Level Pressure 29.64 in    
Wind  
Wind Speed 10 mph (SSW)    
Max Wind Speed 15 mph    
Max Gust Speed 28 mph    
Visibility 10 miles    
Events Rain    
Averages and records for this station are not official NWS values.
T = Trace of Precipitation, MM = Missing Value Source: NWS Daily Summary

Daily Weather History Graph

Daily Weather History Graph

Search for Another Location

Airport:

Trip Planner

Search our weather history database for the weather conditions in past years. The results will help you decide how hot, cold, wet, or windy it might be!

Date:

Astronomy

Oct. 16, 2011 Rise Set
Actual Time 7:04 AM EDT 6:04 PM EDT
Civil Twilight 6:35 AM EDT 6:33 PM EDT
Nautical Twilight 6:02 AM EDT 7:06 PM EDT
Astronomical Twilight 5:28 AM EDT 7:39 PM EDT
Moon 8:39 PM EDT (10/16) 11:26 AM EDT (10/16)
Length of Visible Light 11h 58m
Length of Day
11h 00m
Waning Gibbous, 82% of the Moon is Illuminated
Oct 16
Waning Gibbous
Oct 19
Last Quarter
Oct 26
New
Nov 2
First Quarter
Nov 10
Full

Hourly Weather History & Observations

Time (EDT) Temp. Dew Point Humidity Pressure Visibility Wind Dir Wind Speed Gust Speed Precip Events Conditions
12:53 AM 50.0 °F 41.0 °F 71% 29.58 in 10.0 mi SSW 15.0 mph - N/A   Overcast
1:53 AM 51.1 °F 39.0 °F 63% 29.58 in 10.0 mi SSW 15.0 mph 20.7 mph N/A   Overcast
2:53 AM 52.0 °F 37.9 °F 59% 29.59 in 10.0 mi SW 11.5 mph 27.6 mph N/A   Overcast
3:53 AM 52.0 °F 37.9 °F 59% 29.60 in 10.0 mi SW 12.7 mph 20.7 mph N/A   Overcast
4:53 AM 51.1 °F 37.9 °F 61% 29.63 in 10.0 mi SW 11.5 mph 17.3 mph N/A   Overcast
5:53 AM 51.1 °F 37.9 °F 61% 29.64 in 10.0 mi SW 9.2 mph - N/A   Overcast
6:53 AM 50.0 °F 37.9 °F 63% 29.65 in 10.0 mi SSW 4.6 mph - N/A   Overcast
7:53 AM 51.1 °F 39.0 °F 63% 29.68 in 10.0 mi Calm Calm - N/A   Overcast
8:53 AM 52.0 °F 39.9 °F 63% 29.70 in 10.0 mi WSW 3.5 mph - N/A   Overcast
9:53 AM 53.1 °F 37.9 °F 57% 29.70 in 10.0 mi SW 5.8 mph - N/A   Overcast
10:53 AM 53.1 °F 37.0 °F 55% 29.71 in 10.0 mi WSW 10.4 mph - N/A   Overcast
11:53 AM 54.0 °F 37.0 °F 53% 29.71 in 10.0 mi SW 10.4 mph 23.0 mph N/A   Overcast
12:53 PM 55.0 °F 36.0 °F 49% 29.70 in 10.0 mi WSW 13.8 mph - N/A   Overcast
1:53 PM 57.0 °F 37.0 °F 47% 29.68 in 10.0 mi WSW 10.4 mph - N/A   Overcast
2:53 PM 59.0 °F 37.0 °F 44% 29.67 in 10.0 mi Variable 5.8 mph - N/A   Overcast
3:53 PM 57.9 °F 34.0 °F 41% 29.65 in 10.0 mi SW 12.7 mph - N/A   Overcast
4:53 PM 55.9 °F 37.0 °F 49% 29.64 in 10.0 mi South 6.9 mph - N/A   Overcast
5:53 PM 55.0 °F 39.0 °F 55% 29.62 in 10.0 mi South 8.1 mph - N/A   Overcast
6:53 PM 52.0 °F 43.0 °F 71% 29.63 in 10.0 mi South 6.9 mph - N/A   Overcast
7:53 PM 54.0 °F 42.1 °F 64% 29.63 in 10.0 mi SSW 8.1 mph - 0.00 in   Overcast
8:53 PM 55.0 °F 42.1 °F 62% 29.62 in 10.0 mi South 6.9 mph - N/A   Overcast
9:53 PM 53.1 °F 44.1 °F 71% 29.62 in 10.0 mi SSE 6.9 mph - N/A   Overcast
10:53 PM 53.1 °F 44.1 °F 71% 29.60 in 10.0 mi South 11.5 mph - N/A   Overcast
11:53 PM 52.0 °F 45.0 °F 77% 29.56 in 10.0 mi South 8.1 mph - 0.00 in Rain Light Rain